Find Starlink 11103

NORAD ID: 59718 Int'l Des: 2024-088 Owner: SPXS Country: US Constellation: starlink operational
LEOCIRCULAR

实时位置

正在加载3D地球...

关于 Starlink 11103

正在加载描述...

即将过境

Passes for default location (London). Set your location on the main map for personalized predictions.

高度历史

Loading altitude history...

两行轨道根数

1 59718U 24088L 26125.15572409 .00001050 00000-0 13518-4 0 9999
2 59718 53.1579 47.7057 0001129 102.2232 257.8912 15.69720242115141
Epoch: May 5, 2026 • Age: 22 hours

当前状态

高度 360.7 km
速度 7.70 km/s
星下点 27.09°N, 177.39°W
发射日期 May 10, 2024
运行时间 1.9 years
类型 internet

技术详情

分类 Payload
质量 960.00 kg
干质量 910.00 kg
总质量 960.00 kg
长度 0.30 m
直径 4.10 m
跨度 29.00 m
形状 Box + pan
制造商 SPXS
平台类型 Starlink V2MD
阶段状态 In Orbit
所有者/国家 SPXS/US

Most Searched